CSN621 FADK-FAUL

Flight info

Callsign CSN621
Flight time 0h 23m
Altitude 12000
Route DCT
Aircraft DHC6/L-SDFGR/C

Departure

Time 2026-04-12 15:39
Airport Mubatuba Airport (FADK)

Arrival

Time 2026-04-12 16:02
Airport Prince Mangosuthu Buthelezi Airport (FAUL)
Time Latitude Longitude Altitude Speed Heading
2026-04-12 15:34 -28.36693 32.24777 244 ft 0 kts 20°
2026-04-12 15:37 -28.36690 32.24750 248 ft 11 kts 256°
2026-04-12 15:37 -28.36785 32.24653 247 ft 28 kts 201°
2026-04-12 15:37 -28.37006 32.24553 244 ft 39 kts 199°
2026-04-12 15:38 -28.37238 32.24445 237 ft 21 kts 213°
2026-04-12 15:38 -28.37239 32.24424 237 ft 0 kts 16°
2026-04-12 15:39 -28.37142 32.24473 240 ft 43 kts 22°
2026-04-12 15:39 -28.36686 32.24678 269 ft 93 kts 20°
2026-04-12 15:39 -28.36044 32.24951 614 ft 101 kts 23°
2026-04-12 15:39 -28.35354 32.25214 950 ft 110 kts 23°
2026-04-12 15:40 -28.34617 32.25367 1306 ft 111 kts 353°
2026-04-12 15:40 -28.33883 32.25040 1687 ft 121 kts 330°
2026-04-12 15:40 -28.33403 32.24235 2038 ft 127 kts 304°
2026-04-12 15:40 -28.32985 32.23355 2397 ft 126 kts 307°
2026-04-12 15:41 -28.32580 32.22437 2816 ft 137 kts 295°
2026-04-12 15:41 -28.32707 32.21348 3143 ft 145 kts 248°
2026-04-12 15:41 -28.33134 32.20299 3489 ft 143 kts 259°
2026-04-12 15:41 -28.33391 32.19218 3845 ft 142 kts 263°
2026-04-12 15:42 -28.33521 32.18121 4205 ft 142 kts 268°
2026-04-12 15:42 -28.33553 32.17036 4580 ft 137 kts 273°
2026-04-12 15:42 -28.33524 32.15971 4930 ft 133 kts 274°
2026-04-12 15:43 -28.33427 32.13861 5640 ft 132 kts 274°
2026-04-12 15:43 -28.33367 32.12818 6017 ft 133 kts 274°
2026-04-12 15:43 -28.33302 32.11768 6376 ft 133 kts 272°
2026-04-12 15:43 -28.33344 32.10723 6720 ft 131 kts 266°
2026-04-12 15:44 -28.33391 32.09703 7072 ft 129 kts 267°
2026-04-12 15:44 -28.33439 32.08684 7421 ft 128 kts 266°
2026-04-12 15:44 -28.33480 32.07692 7757 ft 124 kts 266°
2026-04-12 15:44 -28.33517 32.06715 8112 ft 122 kts 266°
2026-04-12 15:45 -28.33556 32.05749 8470 ft 124 kts 267°
2026-04-12 15:45 -28.33582 32.04788 8830 ft 119 kts 266°
2026-04-12 15:45 -28.33612 32.03847 9199 ft 121 kts 267°
2026-04-12 15:45 -28.33635 32.02893 9569 ft 120 kts 266°
2026-04-12 15:46 -28.33654 32.01970 9919 ft 116 kts 266°
2026-04-12 15:46 -28.33694 32.00191 10586 ft 110 kts 266°
2026-04-12 15:46 -28.33714 31.99326 10921 ft 108 kts 266°
2026-04-12 15:47 -28.33740 31.98481 11269 ft 106 kts 267°
2026-04-12 15:47 -28.33767 31.97635 11622 ft 108 kts 267°
2026-04-12 15:47 -28.33837 31.96791 11959 ft 107 kts 262°
2026-04-12 15:47 -28.33936 31.95856 12003 ft 131 kts 263°
2026-04-12 15:48 -28.34050 31.94753 12018 ft 148 kts 263°
2026-04-12 15:48 -28.34179 31.93543 12016 ft 159 kts 263°
2026-04-12 15:48 -28.34315 31.92285 12017 ft 166 kts 263°
2026-04-12 15:48 -28.34460 31.90957 12024 ft 170 kts 263°
2026-04-12 15:49 -28.34609 31.89610 12016 ft 173 kts 262°
2026-04-12 15:49 -28.34757 31.88240 12019 ft 175 kts 263°
2026-04-12 15:49 -28.34912 31.86862 12009 ft 176 kts 262°
2026-04-12 15:49 -28.35061 31.85501 12014 ft 175 kts 263°
2026-04-12 15:50 -28.35212 31.84134 12016 ft 175 kts 262°
2026-04-12 15:50 -28.35367 31.82764 12010 ft 176 kts 263°
2026-04-12 15:50 -28.35521 31.81388 12013 ft 175 kts 263°
2026-04-12 15:50 -28.35675 31.80016 12011 ft 175 kts 263°
2026-04-12 15:51 -28.35831 31.78637 12016 ft 175 kts 263°
2026-04-12 15:51 -28.35986 31.77268 12016 ft 175 kts 263°
2026-04-12 15:51 -28.36140 31.75896 12016 ft 175 kts 263°
2026-04-12 15:51 -28.36295 31.74527 12015 ft 174 kts 262°
2026-04-12 15:52 -28.36450 31.73161 12017 ft 174 kts 263°
2026-04-12 15:52 -28.36604 31.71812 12018 ft 174 kts 262°
2026-04-12 15:52 -28.36762 31.70450 12022 ft 174 kts 263°
2026-04-12 15:52 -28.36919 31.69089 12019 ft 174 kts 263°
2026-04-12 15:53 -28.37078 31.67733 12020 ft 173 kts 262°
2026-04-12 15:53 -28.37237 31.66376 12017 ft 174 kts 263°
2026-04-12 15:53 -28.37396 31.65012 12018 ft 174 kts 263°
2026-04-12 15:53 -28.37554 31.63649 12020 ft 174 kts 263°
2026-04-12 15:54 -28.37716 31.62290 12022 ft 173 kts 263°
2026-04-12 15:54 -28.37874 31.60945 12021 ft 174 kts 263°
2026-04-12 15:54 -28.38038 31.59581 12023 ft 175 kts 263°
2026-04-12 15:54 -28.38205 31.58212 12020 ft 174 kts 263°
2026-04-12 15:55 -28.38369 31.56845 12023 ft 175 kts 263°
2026-04-12 15:55 -28.38532 31.55477 12020 ft 175 kts 263°
2026-04-12 15:55 -28.38694 31.54107 12024 ft 175 kts 263°
2026-04-12 15:55 -28.38858 31.52738 12030 ft 175 kts 262°
2026-04-12 15:56 -28.39020 31.51366 12023 ft 175 kts 263°
2026-04-12 15:56 -28.39182 31.50022 12022 ft 174 kts 263°
2026-04-12 15:56 -28.39348 31.48636 12021 ft 174 kts 263°
2026-04-12 15:56 -28.39512 31.47292 12020 ft 174 kts 263°
2026-04-12 15:57 -28.39676 31.45937 11645 ft 170 kts 263°
2026-04-12 15:57 -28.39836 31.44614 11107 ft 166 kts 263°
2026-04-12 15:57 -28.39993 31.43317 10550 ft 165 kts 262°
2026-04-12 15:57 -28.40148 31.42036 10004 ft 163 kts 263°
2026-04-12 15:58 -28.40300 31.40774 9410 ft 160 kts 263°
2026-04-12 15:58 -28.40450 31.39542 8818 ft 159 kts 262°
2026-04-12 15:58 -28.40614 31.38288 8220 ft 161 kts 263°
2026-04-12 15:58 -28.40767 31.37031 7618 ft 158 kts 268°
2026-04-12 15:59 -28.40556 31.35821 7026 ft 157 kts 295°
2026-04-12 15:59 -28.39811 31.34941 6432 ft 158 kts 329°
2026-04-12 15:59 -28.38766 31.34574 5823 ft 159 kts 354°
2026-04-12 15:59 -28.37691 31.34876 5209 ft 159 kts 21°
2026-04-12 16:00 -28.36864 31.35698 4598 ft 163 kts 54°
2026-04-12 16:00 -28.36600 31.36950 3991 ft 166 kts 82°
2026-04-12 16:00 -28.36383 31.38207 3384 ft 158 kts 63°
2026-04-12 16:00 -28.35835 31.39248 2832 ft 155 kts 51°
2026-04-12 16:01 -28.35207 31.40119 2733 ft 126 kts 46°
2026-04-12 16:01 -28.34606 31.40679 2549 ft 105 kts 20°
2026-04-12 16:01 -28.33930 31.40826 2155 ft 92 kts
2026-04-12 16:01 -28.33344 31.40940 1864 ft 74 kts 11°
2026-04-12 16:02 -28.32869 31.41082 1761 ft 74 kts 16°
2026-04-12 16:02 -28.32417 31.41357 1707 ft 66 kts 33°
2026-04-12 16:02 -28.32003 31.41683 1712 ft 77 kts 33°
2026-04-12 16:02 -28.31618 31.41978 1717 ft 34 kts 35°
2026-04-12 16:03 -28.31547 31.41998 1719 ft 6 kts 307°
2026-04-12 16:03 -28.31519 31.41953 1717 ft 4 kts 303°
2026-04-12 16:03 -28.31509 31.41923 1717 ft 1 kts 270°
2026-04-12 16:03 -28.31531 31.41895 1713 ft 8 kts 213°
2026-04-12 16:04 -28.31563 31.41871 1712 ft 8 kts 213°
2026-04-12 16:04 -28.31588 31.41852 1710 ft 3 kts 203°
2026-04-12 16:04 -28.31603 31.41856 1711 ft 0 kts 102°
2026-04-12 16:05 -28.31605 31.41862 1711 ft 1 kts 117°
2026-04-12 16:05 -28.31606 31.41864 1711 ft 0 kts 117°